Lid_Strength_Index
5 5 5 5 5 4 4 3 3 3 3 2 3 3 3 3 3 4 5 3 4 7 6 6 6 6 5 6 8 6 7 8 9 12 13 13 14 12 13 12 12 14 15 15 15 16 17 8 8 13 10 8 7 7
5 5 5 5 5 4 4 3 3 3 3 3 3 3 3 3 3 3 6 2 2 5 7 5 6 5 5 5 6 6 7 8 8 10 11 11 13 12 13 15 10 15 12 14 13 14 9 7 8 6 6 7 7 7
4 4 4 5 5 4 3 3 3 3 3 3 3 2 2 2 2 3 5 3 3 5 7 7 7 4 3 4 4 8 6 4 5 5 8 10 12 9 13 13 12 10 8 12 12 10 8 7 6 6 5 6 5 5
5 4 4 5 4 4 3 3 3 3 3 3 2 2 2 2 2 3 5 3 3 5 10 7 4 7 4 2 4 4 4 3 4 5 7 9 11 7 11 10 11 10 9 10 11 9 8 7 6 6 5 5 5 4
4 4 4 5 5 4 2 2 2 2 2 2 2 2 2 2 2 3 3 2 2 5 10 9 7 5 4 2 2 3 3 4 5 7 8 9 7 7 8 9 11 8 10 12 12 8 8 8 5 4 5 5 5 5
5 5 5 4 4 3 1 2 2 2 2 2 2 2 2 2 3 4 4 2 3 3 8 11 5 5 5 2 3 3 3 4 5 6 7 6 6 7 10 12 9 7 6 6 8 6 6 5 5 4 4 4 4 4
5 5 4 4 3 3 2 2 2 2 2 2 2 2 3 3 4 4 5 3 3 3 7 9 8 5 3 3 3 4 3 4 5 6 7 7 7 6 9 11 8 7 6 6 5 5 7 6 6 4 4 3 4 4
5 5 4 3 3 4 2 1 2 2 2 2 2 3 3 3 4 4 2 2 3 5 5 8 7 6 2 5 6 4 5 5 5 6 6 7 6 7 11 8 7 6 6 6 5 5 5 4 4 4 3 4 4 4
6 5 5 4 4 3 3 1 2 2 2 2 3 3 4 5 4 2 1 2 2 5 8 7 9 9 4 5 5 5 5 8 5 7 7 6 8 10 9 8 7 6 6 5 4 4 4 5 4 4 4 4 5 5
5 5 5 5 4 3 2 2 2 2 3 3 4 6 6 3 2 2 4 4 4 4 5 9 7 8 6 6 7 7 6 8 10 7 5 8 9 7 6 6 5 5 4 4 5 6 5 5 5 5 5 4 4 4
5 5 5 5 4 3 2 2 3 3 4 5 7 5 3 3 4 4 7 7 6 7 5 6 7 9 6 7 8 6 8 8 11 9 8 9 10 8 6 5 4 4 3 4 4 4 4 4 5 5 4 4 4 4
5 5 5 5 4 3 2 3 4 3 4 4 4 2 2 4 5 8 9 7 7 8 6 7 6 6 7 5 8 8 9 8 10 7 9 11 9 6 5 5 4 4 4 3 3 3 3 4 4 4 4 4 4 3
5 5 5 5 4 3 3 3 3 3 3 4 4 5 6 6 11 11 11 9 9 6 5 5 6 5 6 5 8 9 11 10 7 10 10 10 8 6 5 5 4 3 3 3 3 3 3 4 3 4 4 3 3 4
5 5 5 5 4 2 3 3 3 3 3 6 7 13 9 10 9 8 8 7 5 5 5 5 6 6 6 8 8 10 9 9 11 12 11 9 7 6 5 4 4 4 4 4 4 3 4 4 4 3 3 3 3 4
5 5 5 5 4 2 3 3 3 3 4 7 7 12 10 7 6 5 5 5 4 4 5 5 5 6 7 8 8 9 11 13 11 11 10 8 6 5 5 5 5 5 4 4 4 4 4 4 4 4 3 3 3 3
5 5 6 5 4 3 4 4 4 3 5 6 6 9 7 7 7 6 6 5 4 4 4 5 6 8 8 9 9 11 11 12 10 8 7 6 6 5 5 5 4 4 4 4 4 3 3 4 4 4 3 3 3 3
5 6 4 4 3 4 4 5 5 6 7 8 8 6 6 6 6 5 5 5 3 5 7 6 8 9 8 10 10 8 10 9 7 7 6 5 5 5 4 4 4 4 4 4 3 3 4 3 3 4 4 4 3 3
6 4 4 3 4 4 5 5 6 7 9 8 8 7 5 5 5 4 4 4 5 6 6 7 6 10 11 12 9 8 7 6 6 6 6 5 4 4 4 4 4 4 4 3 3 3 3 4 4 4 4 3 3 3
4 4 3 3 3 5 7 7 6 9 8 7 6 5 5 5 3 4 4 3 3 3 5 6 7 9 9 7 8 7 6 6 7 6 5 4 4 4 4 3 3 3 3 3 3 4 4 3 4 3 3 3 4 3
2 2 2 2 2 5 7 6 5 7 8 6 4 5 5 4 4 3 4 4 4 5 7 8 8 7 7 6 5 5 5 5 5 6 6 5 4 3 4 4 4 3 3 3 3 4 3 3 3 3 3 3 3 3
3 3 3 3 4 5 5 5 6 6 5 6 4 4 5 4 5 5 5 4 6 7 8 6 6 5 4 4 4 4 4 4 5 5 5 5 4 4 4 3 3 3 4 4 4 4 4 4 3 3 3 3 3 2
2 1 2 1 3 3 4 3 5 4 5 5 6 5 6 7 6 6 4 6 7 6 5 6 5 5 5 5 4 4 4 3 3 3 4 4 4 4 4 4 4 4 4 4 3 4 4 3 3 2 3 3 3 2
2 3 4 4 6 7 8 2 6 6 8 7 6 7 7 7 6 4 7 6 6 4 4 4 5 4 4 4 3 3 2 3 4 4 3 3 3 3 3 3 3 4 4 3 3 3 3 4 3 3 2 2 3 3
2 5 7 8 8 10 6 8 6 7 7 9 10 10 9 8 6 8 9 8 6 4 5 5 5 6 5 5 4 4 3 3 3 3 3 3 4 4 3 3 3 2 2 2 3 3 3 3 4 2 3 3 3 3
10 11 10 13 9 11 12 11 10 10 11 11 11 10 9 8 10 10 9 8 6 5 5 5 5 5 5 4 4 3 2 2 3 4 3 2 3 3 3 3 2 2 2 3 3 3 3 2 2 3 2 3 3 3
14 12 13 12 11 12 11 11 11 11 10 10 10 8 7 9 10 10 8 6 5 5 4 4 4 4 4 3 4 4 3 2 2 4 3 2 2 3 4 4 4 3 1 2 2 3 3 3 2 3 3 3 5 3
14 12 11 9 8 8 8 7 6 8 9 10 8 8 8 10 11 8 5 4 4 3 3 2 3 3 4 3 2 2 2 1 2 2 2 2 1 1 2 3 4 2 1 1 1 2 2 3 3 2 2 2 2 2
9 7 9 7 9 7 7 7 7 8 7 6 6 9 10 9 10 6 5 3 3 2 2 2 1 2 2 2 2 2 2 2 1 1 1 1 1 1 1 1 1 6 1 1 1 1 2 2 2 2 3 3 2 2
7 5 5 7 6 6 7 7 7 6 5 6 8 8 8 5 3 3 3 2 2 2 3 3 2 1 2 2 1 1 2 2 3 5 5 5 4 3 1 1 1 1 1 1 5 4 2 2 2 2 2 2 2 1
6 4 6 7 8 8 6 5 6 4 4 4 4 4 5 4 3 2 2 2 3 3 3 2 3 3 3 3 3 3 2 2 2 3 5 4 4 2 1 1 1 1 1 1 1 1 4 2 3 1 2 2 2 2
4 5 6 6 7 6 5 3 3 3 4 4 4 5 6 4 3 2 2 2 2 2 3 3 3 2 3 3 3 3 4 2 1 1 1 1 1 1 1 1 1 1 1 1 1 2 2 2 2 2 3 3 2 3
5 6 7 8 7 5 4 5 5 6 6 6 6 5 5 5 6 4 2 2 2 3 4 3 3 3 1 1 1 2 5 2 1 1 1 1 1 1 1 1 1 1 1 1 1 2 2 2 2 2 3 3 2 2
6 5 5 6 7 6 5 5 6 6 6 6 6 5 5 6 7 4 1 1 2 2 2 2 1 1 1 1 1 1 4 1 3 7 7 6 7 7 4 2 2 2 2 2 2 2 2 2 3 2 2 3 3 2